Regional Weather Roundup
Issued by NWS Wakefield, VA

Home | Current Version | Previous Version | Text Only | Print | Product List | Glossary Off
Versions: 1 2 3 4 5 6 7 8 9 10 11 12 13 14 15 16 17 18 19 20 21 22 23 24 25 26 27 28 29 30 31 32 33 34 35 36 37 38 39 40 41 42 43 44 45 46 47 48 49 50

000
ASUS41 KAKQ 280410
RWRAKQ

REGIONAL WEATHER ROUNDUP
NATIONAL WEATHER SERVICE WAKEFIELD VA
1200 AM EDT MON JUL 28 2014

Note: "fair" indicates few or no clouds below 12,000 feet with no
significant weather and/or obstructions to visibility. * = Denotes
station may not report precipitation (e.g., rain,snow,etc.),
thunder or fog.

VAZ042-051-052>054-056-280500-
NORTHERN VIRGINIA

CITY           SKY/WX    TMP DP  RH WIND       PRES   REMARKS
WASH NATIONAL  TSTM      81  72  74 W7        29.64F
DULLES         LGT RAIN  77  71  82 SW10G21   29.64F
FORT BELVOIR   MOCLDY    81  72  74 VRB7      29.64F
QUANTICO       PTCLDY    80  71  74 SW10      29.65F
FREDERICKSBRG* PTCLDY    80  73  79 SW13      29.65F
STAFFORD*      PTCLDY    78  77  98 SW8       29.69F
WARRENTON      PTCLDY    78  76  93 SW7       29.65F
CULPEPER*      MOCLDY   N/A N/A N/A SW9       29.65F
MANASSAS*      MOCLDY    79  73  83 W6        29.66S
LEESBURG*      LGT RAIN  75  73  94 SW12G22   29.62F
WINCHESTER     CLOUDY    70  64  83 W10       29.67F
$$

VAZ048-049-060>072-079>083-280500-
CENTRAL AND SOUTH CENTRAL VIRGINIA...AND NORTH CENTRAL NORTH CAROLINA

CITY           SKY/WX    TMP DP  RH WIND       PRES   REMARKS
RICHMOND       PTCLDY    79  72  79 S12       29.71F
CHESTERFIELD*  PTCLDY    79  64  61 SW9       29.73F
HANOVER        PTCLDY    79  71  76 S8        29.71F
TAPPAHANNOCK*  CLEAR     77  69  76 S7        29.69F
CHARLOTTSVILLE MOCLDY    76  72  87 CALM      29.70F
ORANGE*        PTCLDY    75  70  83 S6        29.70F
LOUISA*        PTCLDY    75  72  88 CALM      29.69F
FARMVILLE*     MOCLDY    77  75  94 S6        29.70F
SOUTH HILL*    PTCLDY    75  75 100 S5        29.81S
ROANOKE RAPIDS NOT AVBL
RALEIGH        CLOUDY    82  70  66 SW10      29.77R
$$

VAZ088>098-280500-
SOUTHEAST VIRGINIA

CITY           SKY/WX    TMP DP  RH WIND       PRES   REMARKS
NORFOLK        PTCLDY    77  71  82 S12       29.74F
VIRGINIA BEACH MOCLDY    77  71  82 SW7       29.74F
NORFOLK NAVAL  PTCLDY    80  72  76 S7        29.75F
WEST POINT*    PTCLDY    80  73  79 S8        29.71F
NEWPORT NEWS   CLEAR     81  72  74 S10       29.73F
LANGLEY AFB    CLEAR     78  74  86 SW8       29.73F
FORT EUSTIS    CLEAR     78  78 100 S9        29.71F
WILLIAMSBURG*  CLEAR     81  73  78 S8        29.73F
FRANKLIN*      PTCLDY    75  73  94 S7        29.75F
WAKEFIELD      CLEAR     77  72  84 S3        29.73F
$$

VAZ020-022-025-037-045-280500-
WESTERN AND SOUTHWEST VIRGINIA

CITY           SKY/WX    TMP DP  RH WIND       PRES   REMARKS
STAUNTON*      MOCLDY    73  66  79 E6        29.75F
HOT SPRINGS VA CLOUDY    66  62  86 W15G28    29.90R THUNDER
LYNCHBURG      MOCLDY    72  71  97 CALM      29.76F
DANVILLE       PTCLDY    75  71  87 SW5       29.76S
MARTINSVILLE   PTCLDY    75  69  80 CALM      29.81S
ROANOKE        PTCLDY    77  64  64 SW12      29.78S
BLACKSBURG     PTCLDY    72  66  83 CALM        N/A
DUBLIN*        PTCLDY    73  66  78 W10       29.86F
MARION*        CLOUDY   N/A N/A N/A W14G24    29.94S
HILLSVILLE*    MOCLDY    70  63  77 W10       29.90S
RICHLANDS*     CLOUDY    69  66  88 SW13G21   29.91F
WISE*          CLOUDY    66  66 100 SW13      29.94F
ABINGDON*      LGT RAIN  68  67  96 W12G17    29.94R
$$

MDZ021>025-VAZ099-100-280500-
SOUTHERN MARYLAND AND THE DELMARVA PENINSULA

CITY           SKY/WX    TMP DP  RH WIND       PRES   REMARKS
PATUXENT RIVER CLEAR     78  71  79 SW14G23   29.64F
BAY BRIDGE APT   N/A     79  72  78 S8        29.64F
LEONARDTOWN    CLEAR     77  70  78 SW10      29.67F
DOVER          MOCLDY    76  74  93 S12       29.64F
GEORGETOWN     CLEAR     75  71  87 S15       29.67F
EASTON         MOCLDY    79  75  86 SW9       29.69F
CAMBRIDGE      CLEAR     79  72  78 S8        29.66F
SALISBURY      NOT AVBL
OCEAN CITY     CLEAR     76  72  87 SW10      29.70F
WALLOPS ISLAND CLEAR     77  73  87 SW12      29.71F
ACCOMACK*        N/A     75  70  83 SW7       29.71F
$$

NCZ012>017-030>032-280500-
EASTERN NORTH CAROLINA

CITY           SKY/WX    TMP DP  RH WIND       PRES   REMARKS
ELIZABETH CITY MOCLDY    77  73  87 S7        29.78F
AHOSKIE*       MOCLDY    74  71  90 S5        29.77S
EDENTON*       MOCLDY    78  75  89 S9        29.78F
CURRITUCK*     MOCLDY    77  69  77 CALM      29.78F
KILL DEVIL HLS MOCLDY    79  74  85 S5        29.78F
MANTEO         NOT AVBL
CAPE HATTERAS  MOCLDY    81  79  94 SW15      29.82F
GOLDSBORO      CLOUDY    83  76  79 S10       29.75F
WASHINGTON     CLOUDY    80  74  82 S7        29.78F
GREENVILLE     CLOUDY    81  73  78 SW8       29.81S
NEW BERN       CLOUDY    82  74  76 S9        29.80F
WILMINGTON     MOCLDY    83  79  88 SW12      29.83F
$$

VAZ048-280500-
ELSEWHERE

CITY           SKY/WX    TMP DP  RH WIND       PRES   REMARKS
HARRISBURG PA  CLOUDY    67  64  90 CALM      29.65F
BALTIMORE      RAIN      75  72  88 VRB6      29.64F FOG
ANNAPOLIS      MOCLDY    78  71  79 S6        29.63F
ANDREWS AFB    CLOUDY    78  72  83 SW9       29.64F
WILMINGTON DE  CLOUDY    78  72  81 S12       29.64F THUNDER
PHILADELPHIA   TSTM      74  68  81 N10G18    29.67R
WILDWOOD NJ*   PTCLDY    73  68  83 S10       29.69F
ATLANTIC CITY  MOCLDY    76  70  82 S10       29.67F
HENDERSON NC   CLOUDY    74  71  88 S3        29.77S
GREENSBORO     CLOUDY    81  68  64 W13       29.80R
ROCKY MOUNT    CLOUDY    79  73  82 S6        29.77F
FAYETTEVILLE   CLOUDY    86  73  65 SW20      29.79S
CHARLOTTE      CLOUDY    72  67  84 SW8       29.86F
$$

VAZ100-280500-
MARINE

STATION/POSITION TIME  TEMP    WIND        PRES    WAVE   SWELL
                       AIR SEA DIR/SP/G            HT/PER HT/PER
                 (UTC) (F)     (DEG/KT/KT) (MB)    (FT/S) (FT/S)
44066 TX TWR #4  0400   75 74  210/ 14/ 16 1006.2F   4/ 6   2/11
CAPE MAY NJ      0400   74 78  160/  7/ 12 1004.8S
LEWES DE         0400   77 73  210/  6/ 10 1004.7F
15NM E FENWICK I 0400   76 74              1005.7F   3/ 4
OCEAN-CITY-INLET 0400          210/ 13/ 14 1005.4F
WACHAPREAGUE VA  0400   78 80  210/  8/ 11 1006.0F
THOMAS POINT MD  0400   79 79  200/ 14/ 16 1004.0F
GOOSES REEF MD   0400   79     200/ 12/ 14 1004.3F
COVE POINT MD    0400   78     220/ 15/ 19 1003.7F
SOLOMONS ISLAND  0400      80                N/A
BISHOPS HEAD MD  0400   79 78  190/ 15/ 19 1004.2F
PINEY POINT MD   0400          240/ 15/ 22   N/A
POTOMAC MD       0400   79     230/ 19/ 23 1003.6F
CAMBRIDGE MD     0400   78 80  190/  8/ 11 1004.1S
LEWISETTA VA     0400   79 80  240/ 15/ 20 1004.4F
RAPPAHANNOCK LGT 0400          190/ 17/ 19 1006.5F
STINGRAY PT      0400   80     220/ 17/ 21 1006.6F
YORK RVR RNG VA  0400   80     220/ 14/ 16 1005.9F
YORKTOWN VA      0400   79 80  200/  7/  9 1006.2F
JAMESTOWN VA     0400   77     210/ 10/ 14   N/A
DOMINION TERM VA 0400   78     200/ 11/ 14 1007.1F
KIPTOPEKE VA     0400      81  220/ 13/ 15   N/A
CHES BAY BRIDGE  0400          190/ 14/ 16 1006.5F
CAPE HENRY VA    0400   78     200/  8/ 12 1006.1F
WILLOUBY STN VA  0400          220/ 13/ 14 1006.2F
S CRANEY ISL VA  0400          190/  8/ 12 1007.2F
CAPE HENRY BUOY  0400      77                N/A     2/ 4
1ST LANDING BUOY 0400   80     220/ 14/ 17 1006.9F
CAPE CHARLES BUO 0400      76                N/A     2/11   2/11
OFFSHORE WE BUOY 0400      78                N/A     3/11
64NM E OF VA BCH 0400   79 78  210/ 14/ 16 1008.1F   3/ 4   2/ 8
DUCK PIER NC     0400   80 65  190/  8/ 11 1007.7F
44056 DUCK FRF   0400                        N/A     1/11
OREGON INLET NC  0400   81 83  200/  8/ 10 1009.0F
HATTERAS NC      0400   81 83  230/ 11/ 15 1010.2F
DIAMOND SHLS NC  0400          VRB 19/ 23  1009.7F   4/ 5   2/10
CAPE LOOKOUT NC  0300   82     220/ 11/ 19 1010.9F
$$



USA.gov is the U.S. government's official web portal to all federal, state and local government web resources and services.